sat.trackr.live / text

‹ back to catalog

ONEWEB-0011

NORAD 44062 · 2019-010F

PAYLOAD ACTIVE UNKNOWN

§ Identity

Operator
Country
UK
Launch date
2019-02-27
Launch site
FRGUI
Launch vehicle
Mass (kg)
RCS (m²)

Purposes: comms

External: N2YO · Heavens-Above · Gunter

§ Orbital elements

Epoch: 2026-09-19T22:14:20.090688Z

Period
109.46 min
Inclination
87.8997°
Eccentricity
0.0001778
Mean motion
13.15549280 rev/d
Perigee alt
1,200.4 km
Apogee alt
1,203.1 km
Semi-major
7,579.9 km
B*
3.0455e-4
RAAN
240.3132°
Arg perigee
82.7170°
Mean anomaly
277.4163°
Rev number
36,387

§ Raw data

ONEWEB-00111 44062U 19010F   26262.92662142  .00000127  00000+0  30455-3 0  99962 44062  87.8997 240.3132 0001778  82.7170 277.4163 13.15549280363874

JSON: /api/v1/satellites/44062 · /tle

For live sub-satellite position, see the globe view (requires WebGL).

§ Visibility from observer

Set your observer location to see the next 7 days of passes ≥ 10°. The values pass through the URL so the page stays shareable.

No JS? Fill the form by hand. The geolocation button needs JavaScript.